Regional Weather Roundup
Issued by NWS Lake Charles, LA

Home | Current Version | Previous Version | Text Only | Print | Product List | Glossary On
Versions: 1 2 3 4 5 6 7 8 9 10 11 12 13 14 15 16 17 18 19 20 21 22 23 24 25 26 27
000
ASUS44 KLCH 080810
RWRLCH
REGIONAL WEATHER ROUNDUP
NATIONAL WEATHER SERVICE LAKE CHARLES LA
200 AM CST THU DEC 08 2016

Note: "fair" indicates few or no clouds below 12,000 feet with no
significant weather and/or obstructions to visibility.


ACROSS SOUTHEAST TEXAS

CITY           SKY/WX    TMP DP  RH WIND       PRES   REMARKS
BEAUMONT       CLOUDY    55  53  93 N12       30.18R
BEAUMONT CITY  DRIZZLE   56  54  93 N9        30.20R
ORANGE         CLOUDY   N/A N/A N/A N8        30.20S
JASPER         DRIZZLE   54  52  95 N5        30.25R
$$

ACROSS CENTRAL LOUISIANA

CITY           SKY/WX    TMP DP  RH WIND       PRES   REMARKS
LEESVILLE      LGT RAIN  50  50 100 VRB6      30.23R FOG
FULLERTON      LGT RAIN  51  50  96 VRB3      30.20R FOG
ALEXANDRIA INT CLOUDY    51  47  86 N8        30.22S
ESLER FIELD    CLOUDY    51  47  86 CALM      30.23R
DERIDDER       LGT RAIN  52  50  95 CALM      30.24R
OAKDALE        DRIZZLE   52  50  92 N7        30.21S
OPELOUSAS      CLOUDY    52  49  91 NE6       30.19F
$$

ACROSS SOUTHWEST AND SOUTH CENTRAL LOUISIANA

CITY           SKY/WX    TMP DP  RH WIND       PRES   REMARKS
SULPHUR        DRIZZLE   55  54  97 N8        30.21S
LAKE CHARLES   LGT RAIN  54  54 100 N10       30.20R FOG
CHENNAULT INT  CLOUDY    53  52  97 N9        30.20S
CAMERON PHI    CLOUDY    55  54  94 N15G22    30.17R FOG
DEQUINCY       CLOUDY    52  51  96 CALM      30.22S
JENNINGS       CLOUDY    54  52  94 NE12      30.19R
LAFAYETTE      CLOUDY    55  53  93 NE10      30.18R
NEW IBERIA     CLOUDY    56  51  84 NE12      30.18R
ABBEVILLE      CLOUDY    54  54 100 N9        30.17S
PATTERSON      CLOUDY   N/A N/A N/A N10       30.16R HAZE
SALT POINT     NOT AVBL
$$

SELECTED SITES ACROSS THE REGION

CITY           SKY/WX    TMP DP  RH WIND       PRES   REMARKS
HOUSTON BUSH   LGT RAIN  55  53  93 N14       30.19S FOG
HOUSTON HOBBY  CLOUDY    57  54  89 N17       30.17S
GALVESTON      LGT RAIN  59  58  96 N24       30.15S FOG
COLLEGE STAT   CLOUDY    51  47  86 N15G26    30.27R
CONROE         CLOUDY    53  51  93 N8        30.23R
HUNTSVILLE     CLOUDY    53  49  86 VRB5      30.24R
LUFKIN         CLOUDY    51  49  92 NE8       30.25R
SHREVEPORT     DRIZZLE   44  43  96 N15       30.32R FOG
MONROE         CLOUDY    46  40  79 N14       30.30R
NATCHEZ MS     CLOUDY    48  43  81 N8        30.24R
BATON ROUGE    CLOUDY    53  51  93 N6        30.19S
N.O. INTL ARPT CLOUDY    57  56  96 E9        30.13F
SLIDELL        PTCLDY    55  52  89 E3        30.15F
$$

MARINE REPORTS

STATION/POSITION TIME  SKY/WX   TEMP    WIND        PRES    VSBY
                                AIR SEA DIR/SP/G
                 (UTC)          (F)     (DEG/KT/KT) (MB)    (MI)
BUOY 30 S HIGH I 0750            59 66   10/ 21/ 25 1019.5
WVE H/P(F/S)=  4/ 5

SEA RIM ST PARK  0800            55      20/ 15/ 19 1021.9R
PORT ARTHUR      0748               58   30/  9/ 13 1021.8R
SABINE PASS N    0748               61   10/ 16/ 20 1022.6S
TEXAS POINT      NOT AVBL
CALCASIEU PASS   0748            55 60   30/ 15/ 20   N/A
LK CHARLES BEACH 0748            53 58              1023.0R
MARSH ISLAND     0700            61                   N/A
FRESH WATER LOCK 0748            58 62   30/  7/ 13 1021.3R
AMERADA PASS     0748            58 61   50/  4/  6 1020.3R
$$




USA.gov is the U.S. government's official web portal to all federal, state and local government web resources and services.